Вернуться в каталог

EUTE 115 WEST A(SATMEX 5

АктивенСвязьGEO
NORAD 25558·PAYLOAD·🇪🇺 EU

Запущен Dec 6, 1998 с Guiana Space Centre

Loading…

TLE

СвежийSource: Space-Track

Эпоха: Sep 14, 2026, 09:58 UTC

1 25558U 98070A   26257.41565778 -.00000043  00000-0  00000-0 0  9992
2 25558  10.5323  51.0635 0004839 108.2814 258.3234  0.98719586101348

Отслеживайте EUTE 115 WEST A(SATMEX 5 в реальном времени с AllMySat

Download on the App Store